FW5241 Weather Reports


time (UTC)temp
C
wind
direction
speed
KPH
gust
KPH
rain 1hr
cm
rain 24hr
cm
rain mn
cm
humidity
%
barometer
mb
20260504231605 20 138 0.0 0.0 0.00 0.00 0.00 41 1004.6
20260504230100 21 96 0.0 0.0 0.00 0.00 0.00 42 1004.5
20260504224558 21 164 0.0 0.0 0.00 0.00 0.00 40 1004.5
20260504223057 21 85 0.0 0.0 0.00 0.00 0.00 41 1004.6
20260504221602 21 141 0.0 0.0 0.00 0.00 0.00 40 1004.4
20260504220056 21 132 0.0 0.0 0.00 0.00 0.00 42 1004.5
20260504214555 21 111 0.0 0.0 0.00 0.00 0.00 39 1004.6
20260504213054 21 201 0.0 0.0 0.00 0.00 0.00 39 1004.7
20260504211554 21 126 0.0 0.0 0.00 0.00 0.00 38 1004.6
20260504210107 21 130 0.0 0.0 0.00 0.00 0.00 37 1004.8
20260504204559 21 117 0.0 0.0 0.00 0.00 0.00 38 1005.0
20260504203050 21 176 0.0 0.0 0.00 0.00 0.00 39 1005.2
20260504201550 21 150 0.0 0.0 0.00 0.00 0.00 39 1005.4
20260504200046 21 207 0.0 0.0 0.00 0.00 0.00 39 1005.5
20260504194601 21 242 0.0 0.0 0.00 0.00 0.00 42 1005.8
20260504193043 21 38 0.0 0.0 0.00 0.00 0.00 41 1006.0
20260504191548 21 152 0.0 0.0 0.00 0.00 0.00 38 1006.2
20260504190057 21 263 0.0 0.0 0.00 0.00 0.00 40 1006.2
20260504184541 21 107 0.0 0.0 0.00 0.00 0.00 39 1006.6
20260504183037 21 120 0.0 0.0 0.00 0.00 0.00 39 1006.5
20260504181543 21 110 0.0 0.0 0.00 0.00 0.00 42 1006.7
20260504180052 21 151 0.0 0.0 0.00 0.00 0.00 40 1006.9
20260504174530 20 108 0.0 0.0 0.00 0.00 0.00 41 1006.9
20260504173033 20 180 0.0 0.0 0.00 0.00 0.00 40 1006.9
20260504171529 20 93 0.0 0.0 0.00 0.00 0.00 40 1006.9
20260504140126 15 127 0.0 0.0 0.00 0.00 0.00 42 1009.6
20260504081502 6 267 0.0 0.0 0.00 0.00 0.00 70 1010.4
20260504050113 5 317 0.0 0.0 0.00 0.00 0.00 72 1010.7
20260504044544 5 315 0.0 0.0 0.00 0.00 0.00 70 1010.7
20260504043042 6 285 0.0 0.0 0.00 0.00 0.00 69 1010.6
20260504041540 6 336 0.0 0.0 0.00 0.00 0.00 69 1010.5
20260504040041 6 306 0.0 0.0 0.00 0.00 0.00 68 1010.3
20260504034546 7 322 0.0 0.0 0.00 0.00 0.00 66 1010.2
20260504033034 7 183 0.0 0.0 0.00 0.00 0.00 64 1010.3
20260504031540 7 284 0.0 0.0 0.00 0.00 0.00 65 1010.3
20260504030039 7 278 0.0 0.0 0.00 0.00 0.00 66 1010.3
20260504024533 7 36 0.0 0.0 0.00 0.00 0.00 66 1010.4
20260504023029 7 223 0.0 0.0 0.00 0.00 0.00 64 1010.7
20260504021528 7 242 0.0 0.0 0.00 0.00 0.00 63 1010.4
20260504020030 7 31 0.0 0.0 0.00 0.00 0.00 64 1010.4
20260504014526 7 275 0.0 0.0 0.00 0.00 0.00 67 1010.3
20260504013026 7 315 0.0 0.0 0.00 0.00 0.00 66 1010.2
20260504011522 7 167 0.0 0.0 0.00 0.00 0.00 65 1010.1
20260504010017 8 133 0.0 0.0 0.00 0.00 0.00 63 1009.8
20260504004513 10 108 0.0 0.0 0.00 0.00 0.00 59 1009.6
20260504003009 11 200 0.0 0.0 0.00 0.00 0.00 55 1009.6
20260504001506 11 141 0.0 0.0 0.00 0.00 0.00 47 1009.6
20260504000111 -17 0.0 0.0 0.00 0.00 0.00 1009.3
20260503233015 12 82 0.0 0.0 0.00 0.00 0.00 42 1009.2